Location: Newark
(3.0500°N, 36.0167°E)
Time: 16:03:39
(UTC+00:00)

A-11 Canister half - Pass Details

Date: 02 September 2019
Orbit: 1527 x 1682 km, 47.3° (Epoch: 22 September)

Event Time Altitude Azimuth Distance (km) Brightness Sun altitude
Rises 02:26:07 0° 202° (SSW) 4,676 11.2 -16.8°
Reaches altitude 10° 02:29:28 10° 194° (SSW) 3,699 10.8 -16.0°
Maximum altitude 02:37:52 37° 129° (SE) 2,231 10.2 -13.9°
Drops below altitude 10° 02:46:23 10° 65° (ENE) 3,774 12.4 -11.8°
Sets 02:49:48 0° 58° (ENE) 4,781 13.0 -10.9°
